WJA1484 CYYC-KSAN

Flight info

Callsign WJA1484
Flight time 2h 55m
Altitude 35000
Route UBVAL Q927 SEKOM DCT PIH DCT DTA/N0465F340 DCT LAKRR Q73 LVELL LUCKI1
Aircraft B738/M-SDE2E3FGHIRWXY/LB1

Departure

Time 2026-04-26 20:07
Airport Calgary International Airport (CYYC)

Arrival

Time 2026-04-26 23:02
Airport San Diego International Airport (KSAN)
Time Latitude Longitude Altitude Speed Heading
2026-04-26 19:33 51.12932 -114.00533 3558 ft 0 kts 53°
2026-04-26 19:51 51.12928 -114.00542 3556 ft 4 kts 51°
2026-04-26 19:52 51.12910 -114.00574 3556 ft 4 kts 54°
2026-04-26 19:52 51.12901 -114.00608 3558 ft 4 kts 89°
2026-04-26 19:52 51.12909 -114.00637 3558 ft 4 kts 162°
2026-04-26 19:52 51.12935 -114.00642 3555 ft 3 kts 180°
2026-04-26 19:53 51.12938 -114.00642 3556 ft 0 kts 180°
2026-04-26 19:56 51.12932 -114.00642 3557 ft 3 kts 180°
2026-04-26 19:57 51.12894 -114.00642 3558 ft 8 kts 180°
2026-04-26 19:57 51.12818 -114.00643 3558 ft 14 kts 180°
2026-04-26 19:57 51.12708 -114.00642 3558 ft 18 kts 180°
2026-04-26 19:57 51.12621 -114.00605 3557 ft 13 kts 122°
2026-04-26 19:58 51.12613 -114.00469 3558 ft 12 kts 90°
2026-04-26 19:58 51.12613 -114.00335 3558 ft 13 kts 90°
2026-04-26 19:58 51.12613 -114.00189 3558 ft 14 kts 90°
2026-04-26 19:58 51.12613 -114.00029 3558 ft 15 kts 90°
2026-04-26 19:59 51.12612 -113.99861 3558 ft 15 kts 90°
2026-04-26 19:59 51.12612 -113.99696 3559 ft 15 kts 90°
2026-04-26 19:59 51.12612 -113.99538 3559 ft 14 kts 90°
2026-04-26 19:59 51.12554 -113.99446 3558 ft 14 kts 177°
2026-04-26 20:00 51.12444 -113.99446 3559 ft 19 kts 180°
2026-04-26 20:00 51.12291 -113.99445 3559 ft 23 kts 180°
2026-04-26 20:00 51.12135 -113.99446 3558 ft 22 kts 180°
2026-04-26 20:00 51.11986 -113.99447 3559 ft 21 kts 180°
2026-04-26 20:01 51.11840 -113.99447 3559 ft 21 kts 180°
2026-04-26 20:01 51.11697 -113.99447 3555 ft 20 kts 180°
2026-04-26 20:01 51.11559 -113.99448 3558 ft 20 kts 179°
2026-04-26 20:01 51.11426 -113.99447 3559 ft 19 kts 180°
2026-04-26 20:02 51.11296 -113.99448 3559 ft 18 kts 180°
2026-04-26 20:02 51.11171 -113.99447 3558 ft 18 kts 180°
2026-04-26 20:02 51.11063 -113.99437 3559 ft 13 kts 156°
2026-04-26 20:02 51.11035 -113.99373 3559 ft 11 kts 101°
2026-04-26 20:03 51.11033 -113.99250 3560 ft 4 kts 90°
2026-04-26 20:03 51.11033 -113.99240 3560 ft 1 kts 90°
2026-04-26 20:03 51.11033 -113.99238 3560 ft 0 kts 90°
2026-04-26 20:05 51.11033 -113.99197 3560 ft 7 kts 91°
2026-04-26 20:06 51.11032 -113.99102 3563 ft 9 kts 91°
2026-04-26 20:06 51.11073 -113.99039 3560 ft 9 kts 10°
2026-04-26 20:06 51.11180 -113.99038 3557 ft 35 kts 360°
2026-04-26 20:06 51.11660 -113.99037 3562 ft 101 kts
2026-04-26 20:07 51.12550 -113.99038 3562 ft 154 kts
2026-04-26 20:07 51.13697 -113.99026 3943 ft 174 kts
2026-04-26 20:07 51.14927 -113.98834 4766 ft 182 kts 13°
2026-04-26 20:07 51.16201 -113.98388 5301 ft 193 kts 12°
2026-04-26 20:08 51.17534 -113.97895 5780 ft 201 kts 12°
2026-04-26 20:08 51.18914 -113.97444 6338 ft 203 kts
2026-04-26 20:08 51.20294 -113.97042 6942 ft 204 kts 10°
2026-04-26 20:08 51.21658 -113.96033 6943 ft 234 kts 44°
2026-04-26 20:09 51.22371 -113.93665 7052 ft 247 kts 83°
2026-04-26 20:09 51.22110 -113.90921 7271 ft 268 kts 111°
2026-04-26 20:09 51.21017 -113.88430 7725 ft 283 kts 139°
2026-04-26 20:09 51.19273 -113.87043 8560 ft 284 kts 171°
2026-04-26 20:10 51.17299 -113.86913 9379 ft 285 kts 183°
2026-04-26 20:10 51.15295 -113.87051 10094 ft 291 kts 184°
2026-04-26 20:10 51.13229 -113.87216 10534 ft 308 kts 184°
2026-04-26 20:10 51.11009 -113.87368 10718 ft 331 kts 183°
2026-04-26 20:11 51.08632 -113.87496 10906 ft 353 kts 182°
2026-04-26 20:11 51.06112 -113.87597 11167 ft 370 kts 182°
2026-04-26 20:11 51.03512 -113.87676 11798 ft 376 kts 182°
2026-04-26 20:12 50.98264 -113.87797 13212 ft 383 kts 182°
2026-04-26 20:12 50.95584 -113.87852 13900 ft 388 kts 182°
2026-04-26 20:12 50.92870 -113.87906 14479 ft 393 kts 182°
2026-04-26 20:12 50.90122 -113.87961 15020 ft 398 kts 181°
2026-04-26 20:13 50.87333 -113.88015 15565 ft 404 kts 181°
2026-04-26 20:13 50.84505 -113.88071 16125 ft 408 kts 181°
2026-04-26 20:13 50.81647 -113.88127 16672 ft 414 kts 181°
2026-04-26 20:13 50.78748 -113.88184 17209 ft 419 kts 181°
2026-04-26 20:14 50.75818 -113.88242 17744 ft 424 kts 180°
2026-04-26 20:14 50.72862 -113.88301 18311 ft 427 kts 180°
2026-04-26 20:14 50.69871 -113.88360 18796 ft 432 kts 180°
2026-04-26 20:14 50.66899 -113.88419 19284 ft 434 kts 180°
2026-04-26 20:15 50.63865 -113.88469 19790 ft 437 kts 179°
2026-04-26 20:15 50.60833 -113.88107 20264 ft 439 kts 169°
2026-04-26 20:15 50.57830 -113.87207 20752 ft 441 kts 167°
2026-04-26 20:15 50.54818 -113.86229 21219 ft 444 kts 167°
2026-04-26 20:16 50.51788 -113.85237 21693 ft 446 kts 167°
2026-04-26 20:16 50.48750 -113.84258 22250 ft 446 kts 167°
2026-04-26 20:16 50.45700 -113.83297 22748 ft 448 kts 167°
2026-04-26 20:16 50.42638 -113.82350 23156 ft 451 kts 167°
2026-04-26 20:17 50.39545 -113.81404 23547 ft 454 kts 167°
2026-04-26 20:17 50.36470 -113.80470 23921 ft 457 kts 167°
2026-04-26 20:17 50.33344 -113.79525 24263 ft 460 kts 167°
2026-04-26 20:17 50.31214 -113.78882 24493 ft 461 kts 167°
2026-04-26 20:18 50.27031 -113.77621 24987 ft 463 kts 167°
2026-04-26 20:18 50.23864 -113.76667 25353 ft 465 kts 167°
2026-04-26 20:18 50.20676 -113.75707 25651 ft 467 kts 167°
2026-04-26 20:18 50.17476 -113.74745 25942 ft 470 kts 167°
2026-04-26 20:19 50.14254 -113.73777 26241 ft 473 kts 167°
2026-04-26 20:19 50.11013 -113.72804 26543 ft 475 kts 168°
2026-04-26 20:19 50.07764 -113.71831 26839 ft 477 kts 168°
2026-04-26 20:19 50.04542 -113.70867 27151 ft 478 kts 168°
2026-04-26 20:20 50.01280 -113.69892 27542 ft 477 kts 168°
2026-04-26 20:20 49.98018 -113.68919 27860 ft 479 kts 169°
2026-04-26 20:20 49.94744 -113.67945 28192 ft 479 kts 169°
2026-04-26 20:20 49.91473 -113.66972 28597 ft 478 kts 169°
2026-04-26 20:21 49.88211 -113.66003 29037 ft 476 kts 169°
2026-04-26 20:21 49.84961 -113.65038 29455 ft 475 kts 169°
2026-04-26 20:21 49.81718 -113.64075 29859 ft 474 kts 170°
2026-04-26 20:21 49.78503 -113.63120 30472 ft 467 kts 171°
2026-04-26 20:22 49.75317 -113.62180 30834 ft 466 kts 171°
2026-04-26 20:22 49.72127 -113.61242 31011 ft 468 kts 171°
2026-04-26 20:22 49.68956 -113.60308 31181 ft 471 kts 171°
2026-04-26 20:22 49.65741 -113.59361 31450 ft 471 kts 171°
2026-04-26 20:23 49.62532 -113.58431 31778 ft 469 kts 172°
2026-04-26 20:23 49.59293 -113.57753 31995 ft 470 kts 175°
2026-04-26 20:23 49.56049 -113.57254 32351 ft 467 kts 176°
2026-04-26 20:23 49.52822 -113.56824 32685 ft 465 kts 177°
2026-04-26 20:24 49.49590 -113.56401 32909 ft 467 kts 176°
2026-04-26 20:24 49.46350 -113.55961 33116 ft 468 kts 176°
2026-04-26 20:24 49.43106 -113.55498 33370 ft 468 kts 176°
2026-04-26 20:24 49.39864 -113.55016 33656 ft 468 kts 176°
2026-04-26 20:25 49.36622 -113.54521 33887 ft 468 kts 175°
2026-04-26 20:25 49.34484 -113.54191 34122 ft 467 kts 176°
2026-04-26 20:25 49.30214 -113.53527 34485 ft 465 kts 175°
2026-04-26 20:25 49.26991 -113.53026 34618 ft 466 kts 175°
2026-04-26 20:26 49.23756 -113.52525 34765 ft 468 kts 175°
2026-04-26 20:26 49.20523 -113.52025 34964 ft 467 kts 175°
2026-04-26 20:26 49.17285 -113.51525 35141 ft 467 kts 175°
2026-04-26 20:27 49.10780 -113.50524 35143 ft 470 kts 176°
2026-04-26 20:27 49.04311 -113.49531 35124 ft 464 kts 176°
2026-04-26 20:28 48.97940 -113.48556 35118 ft 462 kts 176°
2026-04-26 20:28 48.91553 -113.47583 35119 ft 461 kts 176°
2026-04-26 20:29 48.85172 -113.46612 35120 ft 461 kts 176°
2026-04-26 20:29 48.78781 -113.45643 35127 ft 462 kts 176°
2026-04-26 20:30 48.72427 -113.44681 35121 ft 463 kts 176°
2026-04-26 20:30 48.66006 -113.43711 35108 ft 464 kts 176°
2026-04-26 20:31 48.59574 -113.42742 35106 ft 465 kts 176°
2026-04-26 20:31 48.53124 -113.41773 35105 ft 466 kts 176°
2026-04-26 20:32 48.46703 -113.40812 35099 ft 467 kts 176°
2026-04-26 20:32 48.40244 -113.39846 35075 ft 466 kts 176°
2026-04-26 20:33 48.33798 -113.38884 35075 ft 465 kts 176°
2026-04-26 20:33 48.27360 -113.37926 35073 ft 464 kts 176°
2026-04-26 20:34 48.20978 -113.36980 35071 ft 463 kts 177°
2026-04-26 20:34 48.14567 -113.36033 35039 ft 462 kts 176°
2026-04-26 20:35 48.08181 -113.35092 35040 ft 461 kts 176°
2026-04-26 20:35 48.01801 -113.34150 35038 ft 460 kts 177°
2026-04-26 20:36 47.95485 -113.33224 35038 ft 458 kts 177°
2026-04-26 20:36 47.89145 -113.32295 35011 ft 457 kts 177°
2026-04-26 20:37 47.82814 -113.31370 35005 ft 457 kts 177°
2026-04-26 20:37 47.76499 -113.30450 34996 ft 455 kts 177°
2026-04-26 20:38 47.70242 -113.29540 35013 ft 455 kts 177°
2026-04-26 20:38 47.63945 -113.28627 34989 ft 455 kts 177°
2026-04-26 20:39 47.57647 -113.27715 34992 ft 455 kts 177°
2026-04-26 20:39 47.51343 -113.26806 34998 ft 455 kts 177°
2026-04-26 20:40 47.45072 -113.25903 34994 ft 456 kts 177°
2026-04-26 20:40 47.38760 -113.24996 34968 ft 456 kts 177°
2026-04-26 20:41 47.32442 -113.24090 34970 ft 456 kts 177°
2026-04-26 20:41 47.26120 -113.23186 34962 ft 456 kts 177°
2026-04-26 20:42 47.19815 -113.22286 34970 ft 455 kts 177°
2026-04-26 20:42 47.13561 -113.21397 34950 ft 454 kts 177°
2026-04-26 20:43 47.07280 -113.20505 34955 ft 453 kts 178°
2026-04-26 20:43 47.01010 -113.19617 34953 ft 452 kts 177°
2026-04-26 20:44 46.94760 -113.18735 34960 ft 451 kts 177°
2026-04-26 20:44 46.88562 -113.17861 34939 ft 450 kts 178°
2026-04-26 20:45 46.82340 -113.16985 34947 ft 449 kts 178°
2026-04-26 20:45 46.76128 -113.16115 34957 ft 448 kts 178°
2026-04-26 20:46 46.69922 -113.15246 34958 ft 448 kts 178°
2026-04-26 20:46 46.63720 -113.14380 34955 ft 447 kts 178°
2026-04-26 20:47 46.57564 -113.13523 34950 ft 447 kts 178°
2026-04-26 20:47 46.51383 -113.12663 34958 ft 446 kts 178°
2026-04-26 20:48 46.45202 -113.11806 34952 ft 446 kts 178°
2026-04-26 20:48 46.39061 -113.10957 34938 ft 446 kts 178°
2026-04-26 20:49 46.32877 -113.10102 34945 ft 446 kts 178°
2026-04-26 20:49 46.26694 -113.09250 34925 ft 447 kts 178°
2026-04-26 20:50 46.20499 -113.08400 34945 ft 447 kts 178°
2026-04-26 20:50 46.14309 -113.07552 34926 ft 447 kts 178°
2026-04-26 20:51 46.08152 -113.06708 34924 ft 447 kts 178°
2026-04-26 20:51 46.01954 -113.05859 34913 ft 447 kts 178°
2026-04-26 20:52 45.95769 -113.05020 34920 ft 446 kts 178°
2026-04-26 20:52 45.89584 -113.04180 34902 ft 446 kts 178°
2026-04-26 20:53 45.83453 -113.03349 34901 ft 445 kts 178°
2026-04-26 20:53 45.77292 -113.02514 34897 ft 444 kts 178°
2026-04-26 20:54 45.71146 -113.01683 34872 ft 443 kts 178°
2026-04-26 20:54 45.65013 -113.00860 34876 ft 442 kts 178°
2026-04-26 20:55 45.58939 -113.00043 34877 ft 441 kts 179°
2026-04-26 20:55 45.52842 -112.99223 34875 ft 440 kts 179°
2026-04-26 20:56 45.46756 -112.98410 34850 ft 439 kts 179°
2026-04-26 20:56 45.40725 -112.97604 34844 ft 437 kts 179°
2026-04-26 20:57 45.34678 -112.96796 34835 ft 436 kts 179°
2026-04-26 20:57 45.28636 -112.95993 34832 ft 435 kts 179°
2026-04-26 20:58 45.22606 -112.95195 34806 ft 435 kts 179°
2026-04-26 20:58 45.16584 -112.94399 34805 ft 435 kts 179°
2026-04-26 20:59 45.10608 -112.93609 34804 ft 434 kts 179°
2026-04-26 20:59 45.04595 -112.92816 34807 ft 434 kts 179°
2026-04-26 21:00 44.98585 -112.92025 34789 ft 434 kts 179°
2026-04-26 21:00 44.92574 -112.91237 34775 ft 433 kts 179°
2026-04-26 21:01 44.86617 -112.90454 34783 ft 433 kts 179°
2026-04-26 21:01 44.80622 -112.89668 34761 ft 433 kts 179°
2026-04-26 21:02 44.74629 -112.88891 34770 ft 432 kts 179°
2026-04-26 21:02 44.68637 -112.88110 34762 ft 432 kts 179°
2026-04-26 21:03 44.62647 -112.87328 34769 ft 432 kts 179°
2026-04-26 21:03 44.56696 -112.86553 34750 ft 433 kts 179°
2026-04-26 21:04 44.50699 -112.85784 34748 ft 432 kts 179°
2026-04-26 21:04 44.44713 -112.85012 34754 ft 432 kts 179°
2026-04-26 21:05 44.38722 -112.84246 34738 ft 433 kts 179°
2026-04-26 21:05 44.32771 -112.83480 34751 ft 432 kts 179°
2026-04-26 21:06 44.26780 -112.82705 34746 ft 433 kts 179°
2026-04-26 21:06 44.20786 -112.81936 34739 ft 433 kts 179°
2026-04-26 21:07 44.14791 -112.81175 34730 ft 433 kts 179°
2026-04-26 21:07 44.08835 -112.80417 34723 ft 433 kts 179°
2026-04-26 21:08 44.02833 -112.79650 34713 ft 433 kts 179°
2026-04-26 21:08 43.96846 -112.78888 34725 ft 432 kts 179°
2026-04-26 21:09 43.90868 -112.78130 34718 ft 431 kts 179°
2026-04-26 21:09 43.84937 -112.77379 34716 ft 431 kts 179°
2026-04-26 21:10 43.78971 -112.76626 34703 ft 430 kts 179°
2026-04-26 21:10 43.73015 -112.75876 34714 ft 430 kts 179°
2026-04-26 21:11 43.67100 -112.75132 34717 ft 430 kts 179°
2026-04-26 21:11 43.61143 -112.74385 34700 ft 430 kts 179°
2026-04-26 21:12 43.55186 -112.73639 34705 ft 430 kts 179°
2026-04-26 21:12 43.49213 -112.72892 34715 ft 432 kts 179°
2026-04-26 21:13 43.43222 -112.72145 34706 ft 433 kts 179°
2026-04-26 21:13 43.37263 -112.71403 34715 ft 433 kts 179°
2026-04-26 21:14 43.31253 -112.70656 34713 ft 434 kts 179°
2026-04-26 21:14 43.25232 -112.69909 34708 ft 435 kts 178°
2026-04-26 21:15 43.19207 -112.69163 34723 ft 435 kts 178°
2026-04-26 21:15 43.13218 -112.68423 34746 ft 435 kts 178°
2026-04-26 21:16 43.07183 -112.67679 34734 ft 435 kts 178°
2026-04-26 21:16 43.01153 -112.66937 34753 ft 435 kts 178°
2026-04-26 21:17 42.95116 -112.66195 34767 ft 435 kts 179°
2026-04-26 21:17 42.89119 -112.65460 34749 ft 435 kts 178°
2026-04-26 21:18 42.83081 -112.64913 34734 ft 434 kts 181°
2026-04-26 21:18 42.77046 -112.64684 34739 ft 434 kts 182°
2026-04-26 21:19 42.70992 -112.64481 34736 ft 435 kts 182°
2026-04-26 21:19 42.64973 -112.64249 34729 ft 436 kts 181°
2026-04-26 21:20 42.58903 -112.63994 34741 ft 437 kts 181°
2026-04-26 21:20 42.52826 -112.63733 34733 ft 437 kts 181°
2026-04-26 21:21 42.46743 -112.63473 34729 ft 438 kts 181°
2026-04-26 21:21 42.40651 -112.63211 34735 ft 438 kts 181°
2026-04-26 21:22 42.34604 -112.62954 34723 ft 438 kts 181°
2026-04-26 21:22 42.28522 -112.62696 34719 ft 437 kts 181°
2026-04-26 21:23 42.19403 -112.62310 34710 ft 437 kts 181°
2026-04-26 21:23 42.13319 -112.62053 34712 ft 437 kts 181°
2026-04-26 21:24 42.07281 -112.61798 34708 ft 437 kts 181°
2026-04-26 21:24 42.01205 -112.61543 34707 ft 437 kts 181°
2026-04-26 21:25 41.95120 -112.61287 34700 ft 437 kts 181°
2026-04-26 21:25 41.89039 -112.61032 34695 ft 438 kts 181°
2026-04-26 21:26 41.82986 -112.60778 34689 ft 438 kts 181°
2026-04-26 21:26 41.76902 -112.60524 34690 ft 439 kts 181°
2026-04-26 21:27 41.70780 -112.60269 34680 ft 439 kts 181°
2026-04-26 21:27 41.64664 -112.60014 34688 ft 440 kts 181°
2026-04-26 21:28 41.58538 -112.59760 34687 ft 441 kts 181°
2026-04-26 21:28 41.52442 -112.59507 34674 ft 442 kts 181°
2026-04-26 21:29 41.46291 -112.59253 34685 ft 443 kts 181°
2026-04-26 21:29 41.40125 -112.58998 34683 ft 443 kts 181°
2026-04-26 21:30 41.33967 -112.58743 34660 ft 443 kts 181°
2026-04-26 21:30 41.28840 -112.58532 34678 ft 443 kts 181°
2026-04-26 21:31 41.21670 -112.58238 34674 ft 444 kts 181°
2026-04-26 21:31 41.15488 -112.57984 34675 ft 445 kts 181°
2026-04-26 21:32 41.09294 -112.57731 34676 ft 445 kts 181°
2026-04-26 21:32 41.03140 -112.57480 34673 ft 446 kts 181°
2026-04-26 21:33 40.96935 -112.57227 34682 ft 446 kts 181°
2026-04-26 21:33 40.90724 -112.56974 34684 ft 446 kts 181°
2026-04-26 21:34 40.84515 -112.56722 34688 ft 447 kts 181°
2026-04-26 21:34 40.78343 -112.56471 34701 ft 447 kts 181°
2026-04-26 21:35 40.72119 -112.56220 34693 ft 448 kts 181°
2026-04-26 21:35 40.65888 -112.55968 34705 ft 448 kts 181°
2026-04-26 21:36 40.60711 -112.55759 34703 ft 448 kts 181°
2026-04-26 21:36 40.53419 -112.55466 34705 ft 448 kts 181°
2026-04-26 21:37 40.47224 -112.55217 34709 ft 448 kts 181°
2026-04-26 21:37 40.40987 -112.54967 34711 ft 448 kts 181°
2026-04-26 21:38 40.34752 -112.54717 34699 ft 449 kts 181°
2026-04-26 21:38 40.28515 -112.54468 34706 ft 448 kts 181°
2026-04-26 21:39 40.22320 -112.54221 34709 ft 448 kts 181°
2026-04-26 21:39 40.16079 -112.53973 34702 ft 449 kts 181°
2026-04-26 21:40 40.09844 -112.53725 34705 ft 448 kts 181°
2026-04-26 21:40 40.03610 -112.53477 34706 ft 448 kts 181°
2026-04-26 21:41 39.97375 -112.53231 34710 ft 448 kts 181°
2026-04-26 21:41 39.91179 -112.52986 34693 ft 449 kts 181°
2026-04-26 21:42 39.84930 -112.52740 34696 ft 449 kts 181°
2026-04-26 21:42 39.78676 -112.52493 34695 ft 450 kts 181°
2026-04-26 21:43 39.73470 -112.52289 34688 ft 450 kts 182°
2026-04-26 21:43 39.66193 -112.52003 34719 ft 450 kts 182°
2026-04-26 21:44 39.59928 -112.51758 34742 ft 450 kts 182°
2026-04-26 21:44 39.54718 -112.51554 34763 ft 450 kts 182°
2026-04-26 21:45 39.48455 -112.51309 34785 ft 450 kts 182°
2026-04-26 21:45 39.41178 -112.51027 34796 ft 450 kts 182°
2026-04-26 21:46 39.34919 -112.50784 34671 ft 450 kts 182°
2026-04-26 21:46 39.29795 -112.51362 34670 ft 442 kts 197°
2026-04-26 21:47 39.24068 -112.54016 34677 ft 436 kts 207°
2026-04-26 21:47 39.18555 -112.57271 34664 ft 436 kts 208°
2026-04-26 21:48 39.13039 -112.60512 34667 ft 436 kts 207°
2026-04-26 21:48 39.07540 -112.63704 34657 ft 436 kts 208°
2026-04-26 21:49 39.02003 -112.66896 34671 ft 436 kts 207°
2026-04-26 21:49 38.96461 -112.70081 34673 ft 436 kts 207°
2026-04-26 21:50 38.90922 -112.73260 34666 ft 436 kts 207°
2026-04-26 21:50 38.85375 -112.76438 34675 ft 436 kts 207°
2026-04-26 21:51 38.79874 -112.79585 34672 ft 436 kts 208°
2026-04-26 21:51 38.74341 -112.82744 34678 ft 435 kts 208°
2026-04-26 21:52 38.68813 -112.85896 34688 ft 435 kts 208°
2026-04-26 21:52 38.63285 -112.89043 34743 ft 435 kts 208°
2026-04-26 21:53 38.57793 -112.92163 34758 ft 434 kts 208°
2026-04-26 21:53 38.52284 -112.95288 34791 ft 433 kts 208°
2026-04-26 21:54 38.46782 -112.98403 34804 ft 432 kts 208°
2026-04-26 21:54 38.41288 -113.01509 34805 ft 432 kts 208°
2026-04-26 21:55 38.35799 -113.04608 34745 ft 433 kts 208°
2026-04-26 21:55 38.33071 -113.06147 34481 ft 435 kts 208°
2026-04-26 21:55 38.30311 -113.07701 34242 ft 433 kts 208°
2026-04-26 21:56 38.27565 -113.09246 34003 ft 432 kts 208°
2026-04-26 21:56 38.24815 -113.10791 33834 ft 432 kts 208°
2026-04-26 21:56 38.19330 -113.13871 33778 ft 431 kts 208°
2026-04-26 21:57 38.13834 -113.16954 33737 ft 433 kts 208°
2026-04-26 21:57 38.08352 -113.20023 33722 ft 433 kts 208°
2026-04-26 21:58 38.02833 -113.23107 33724 ft 434 kts 208°
2026-04-26 21:58 37.97321 -113.26182 33741 ft 433 kts 208°
2026-04-26 21:59 37.91812 -113.29249 33785 ft 432 kts 208°
2026-04-26 21:59 37.86356 -113.32283 33769 ft 431 kts 208°
2026-04-26 22:00 37.80881 -113.35323 33801 ft 429 kts 208°
2026-04-26 22:00 37.75417 -113.38351 33812 ft 428 kts 208°
2026-04-26 22:01 37.69963 -113.41369 33808 ft 428 kts 208°
2026-04-26 22:01 37.64549 -113.44361 33790 ft 427 kts 208°
2026-04-26 22:02 37.59103 -113.47366 33773 ft 427 kts 208°
2026-04-26 22:02 37.53663 -113.50361 33785 ft 427 kts 208°
2026-04-26 22:03 37.48222 -113.53354 33793 ft 426 kts 208°
2026-04-26 22:03 37.42791 -113.56334 33797 ft 426 kts 208°
2026-04-26 22:04 37.37351 -113.59316 33800 ft 426 kts 208°
2026-04-26 22:04 37.31955 -113.62268 33794 ft 426 kts 208°
2026-04-26 22:05 37.26525 -113.65236 33824 ft 426 kts 208°
2026-04-26 22:05 37.21094 -113.68198 33837 ft 425 kts 208°
2026-04-26 22:06 37.15669 -113.71156 33843 ft 425 kts 208°
2026-04-26 22:06 37.10282 -113.74084 33819 ft 424 kts 208°
2026-04-26 22:07 37.04881 -113.77018 33833 ft 423 kts 207°
2026-04-26 22:07 36.99477 -113.79946 33826 ft 423 kts 207°
2026-04-26 22:08 36.94075 -113.82872 33812 ft 423 kts 207°
2026-04-26 22:08 36.88717 -113.85801 33813 ft 424 kts 207°
2026-04-26 22:09 36.83285 -113.88703 33790 ft 425 kts 207°
2026-04-26 22:09 36.77850 -113.91624 33789 ft 426 kts 207°
2026-04-26 22:10 36.72404 -113.94552 33796 ft 426 kts 208°
2026-04-26 22:10 36.66951 -113.97480 33791 ft 426 kts 207°
2026-04-26 22:11 36.61544 -114.00381 33793 ft 426 kts 207°
2026-04-26 22:11 36.56108 -114.03292 33772 ft 425 kts 208°
2026-04-26 22:12 36.50682 -114.06194 33784 ft 424 kts 208°
2026-04-26 22:12 36.45255 -114.09092 33780 ft 424 kts 208°
2026-04-26 22:13 36.39865 -114.11964 33780 ft 424 kts 208°
2026-04-26 22:13 36.34443 -114.14849 33757 ft 424 kts 208°
2026-04-26 22:14 36.29030 -114.17725 33759 ft 423 kts 208°
2026-04-26 22:14 36.23625 -114.20595 33762 ft 423 kts 208°
2026-04-26 22:15 36.18253 -114.23443 33770 ft 423 kts 208°
2026-04-26 22:15 36.12848 -114.26300 33764 ft 422 kts 208°
2026-04-26 22:16 36.07873 -114.29972 33753 ft 413 kts 222°
2026-04-26 22:16 36.03864 -114.34925 33768 ft 406 kts 231°
2026-04-26 22:17 36.00159 -114.40125 33766 ft 405 kts 231°
2026-04-26 22:17 35.96417 -114.45340 33775 ft 406 kts 231°
2026-04-26 22:18 35.92661 -114.50542 33782 ft 406 kts 231°
2026-04-26 22:18 35.88891 -114.55747 33804 ft 407 kts 231°
2026-04-26 22:19 35.85115 -114.60952 33763 ft 408 kts 231°
2026-04-26 22:19 35.81380 -114.66158 33818 ft 408 kts 232°
2026-04-26 22:20 35.77597 -114.71381 33822 ft 409 kts 230°
2026-04-26 22:20 35.73759 -114.76569 33854 ft 409 kts 230°
2026-04-26 22:21 35.69951 -114.81772 33846 ft 409 kts 230°
2026-04-26 22:21 35.66149 -114.86977 33869 ft 409 kts 230°
2026-04-26 22:22 35.62374 -114.92154 33859 ft 410 kts 230°
2026-04-26 22:22 35.58572 -114.97370 33855 ft 410 kts 230°
2026-04-26 22:23 35.54764 -115.02582 33865 ft 410 kts 230°
2026-04-26 22:23 35.50485 -115.07163 33876 ft 416 kts 217°
2026-04-26 22:24 35.45299 -115.10388 33851 ft 423 kts 205°
2026-04-26 22:24 35.39744 -115.12659 33859 ft 419 kts 204°
2026-04-26 22:25 35.34235 -115.14905 33872 ft 416 kts 205°
2026-04-26 22:25 35.28758 -115.17172 33869 ft 415 kts 205°
2026-04-26 22:26 35.23329 -115.19430 33867 ft 415 kts 205°
2026-04-26 22:26 35.17865 -115.21697 33856 ft 414 kts 205°
2026-04-26 22:27 35.12364 -115.23843 33859 ft 418 kts 201°
2026-04-26 22:27 35.06692 -115.25380 33858 ft 420 kts 199°
2026-04-26 22:28 35.00964 -115.26870 33864 ft 419 kts 200°
2026-04-26 22:28 34.95259 -115.28398 33824 ft 419 kts 200°
2026-04-26 22:29 34.89578 -115.29941 33841 ft 418 kts 200°
2026-04-26 22:29 34.83934 -115.31473 33840 ft 417 kts 200°
2026-04-26 22:30 34.78259 -115.33022 33846 ft 415 kts 202°
2026-04-26 22:30 34.72822 -115.35176 33843 ft 410 kts 206°
2026-04-26 22:31 34.67423 -115.37416 33838 ft 409 kts 206°
2026-04-26 22:31 34.62035 -115.39624 33842 ft 409 kts 206°
2026-04-26 22:32 34.56683 -115.41802 33841 ft 409 kts 206°
2026-04-26 22:32 34.51293 -115.43989 33838 ft 409 kts 206°
2026-04-26 22:33 34.43205 -115.47267 33834 ft 407 kts 207°
2026-04-26 22:34 34.37882 -115.49443 33838 ft 404 kts 209°
2026-04-26 22:34 34.33020 -115.52570 33858 ft 392 kts 219°
2026-04-26 22:35 34.28379 -115.56053 33858 ft 393 kts 218°
2026-04-26 22:35 34.23709 -115.59502 33857 ft 394 kts 218°
2026-04-26 22:36 34.18877 -115.62676 33858 ft 402 kts 210°
2026-04-26 22:36 34.13647 -115.65070 33860 ft 402 kts 209°
2026-04-26 22:37 34.08426 -115.67453 33871 ft 400 kts 210°
2026-04-26 22:37 34.03281 -115.69864 33867 ft 399 kts 210°
2026-04-26 22:38 33.98112 -115.72298 33875 ft 399 kts 210°
2026-04-26 22:38 33.92943 -115.74730 33878 ft 399 kts 210°
2026-04-26 22:39 33.87821 -115.77205 33879 ft 394 kts 211°
2026-04-26 22:39 33.82761 -115.79705 33887 ft 392 kts 211°
2026-04-26 22:39 33.80225 -115.80954 33449 ft 397 kts 211°
2026-04-26 22:40 33.77676 -115.82202 32848 ft 395 kts 211°
2026-04-26 22:40 33.75130 -115.83426 32208 ft 393 kts 211°
2026-04-26 22:40 33.72618 -115.84610 31501 ft 394 kts 210°
2026-04-26 22:40 33.70057 -115.85804 30768 ft 396 kts 210°
2026-04-26 22:41 33.67487 -115.86992 30042 ft 397 kts 210°
2026-04-26 22:41 33.64902 -115.88194 29080 ft 399 kts 210°
2026-04-26 22:41 33.62315 -115.89400 28309 ft 398 kts 210°
2026-04-26 22:41 33.59754 -115.90593 27767 ft 392 kts 210°
2026-04-26 22:42 33.57221 -115.91775 27169 ft 389 kts 210°
2026-04-26 22:42 33.54713 -115.92945 26593 ft 386 kts 209°
2026-04-26 22:42 33.52363 -115.94378 26014 ft 372 kts 221°
2026-04-26 22:42 33.50438 -115.96368 25467 ft 364 kts 232°
2026-04-26 22:43 33.48880 -115.98782 24950 ft 380 kts 237°
2026-04-26 22:43 33.47359 -116.01429 24365 ft 391 kts 238°
2026-04-26 22:43 33.45827 -116.04135 23747 ft 393 kts 238°
2026-04-26 22:43 33.44290 -116.06837 23056 ft 391 kts 238°
2026-04-26 22:44 33.42754 -116.09511 22417 ft 389 kts 237°
2026-04-26 22:44 33.41220 -116.12164 21812 ft 386 kts 237°
2026-04-26 22:44 33.39695 -116.14790 21211 ft 381 kts 237°
2026-04-26 22:44 33.38181 -116.17355 20661 ft 375 kts 236°
2026-04-26 22:45 33.36613 -116.19841 20070 ft 374 kts 236°
2026-04-26 22:45 33.35195 -116.22409 19509 ft 375 kts 240°
2026-04-26 22:45 33.33634 -116.24906 18922 ft 379 kts 225°
2026-04-26 22:45 33.31378 -116.26534 18533 ft 380 kts 210°
2026-04-26 22:46 33.28983 -116.27879 18107 ft 382 kts 210°
2026-04-26 22:46 33.26574 -116.29252 17594 ft 384 kts 210°
2026-04-26 22:46 33.24177 -116.30630 17124 ft 381 kts 210°
2026-04-26 22:46 33.21804 -116.32006 16685 ft 378 kts 211°
2026-04-26 22:47 33.19448 -116.33379 16256 ft 376 kts 210°
2026-04-26 22:47 33.17115 -116.34742 15837 ft 371 kts 211°
2026-04-26 22:47 33.14817 -116.36082 15429 ft 364 kts 212°
2026-04-26 22:47 33.12593 -116.37382 15027 ft 358 kts 212°
2026-04-26 22:48 33.10380 -116.38683 14664 ft 352 kts 210°
2026-04-26 22:48 33.08192 -116.39960 14277 ft 347 kts 210°
2026-04-26 22:48 33.06034 -116.41218 13892 ft 342 kts 212°
2026-04-26 22:48 33.03936 -116.42436 13456 ft 329 kts 211°
2026-04-26 22:49 33.01920 -116.43612 13103 ft 315 kts 212°
2026-04-26 22:49 33.00031 -116.44840 12752 ft 304 kts 222°
2026-04-26 22:49 32.98413 -116.46426 12415 ft 301 kts 226°
2026-04-26 22:49 32.96853 -116.48062 12080 ft 296 kts 227°
2026-04-26 22:50 32.95306 -116.49650 11754 ft 291 kts 225°
2026-04-26 22:50 32.93793 -116.51195 11461 ft 290 kts 226°
2026-04-26 22:50 32.92262 -116.52760 11138 ft 290 kts 227°
2026-04-26 22:50 32.90726 -116.54320 10802 ft 289 kts 226°
2026-04-26 22:51 32.89216 -116.55850 10472 ft 282 kts 226°
2026-04-26 22:51 32.87738 -116.57339 10146 ft 276 kts 225°
2026-04-26 22:51 32.86293 -116.58793 9857 ft 269 kts 225°
2026-04-26 22:51 32.84876 -116.60222 9521 ft 266 kts 225°
2026-04-26 22:52 32.83471 -116.61643 9228 ft 265 kts 225°
2026-04-26 22:52 32.82063 -116.63061 8921 ft 265 kts 225°
2026-04-26 22:52 32.80678 -116.64455 8645 ft 263 kts 225°
2026-04-26 22:52 32.79283 -116.65860 8345 ft 263 kts 224°
2026-04-26 22:53 32.77893 -116.67265 8053 ft 261 kts 226°
2026-04-26 22:53 32.76782 -116.68920 7777 ft 255 kts 244°
2026-04-26 22:53 32.75946 -116.70766 7526 ft 253 kts 244°
2026-04-26 22:53 32.75100 -116.72590 7273 ft 251 kts 243°
2026-04-26 22:54 32.74260 -116.74382 7008 ft 245 kts 243°
2026-04-26 22:54 32.73442 -116.76116 6790 ft 237 kts 243°
2026-04-26 22:54 32.72653 -116.77783 6534 ft 231 kts 243°
2026-04-26 22:54 32.71878 -116.79417 6303 ft 224 kts 243°
2026-04-26 22:55 32.71121 -116.81013 6066 ft 220 kts 243°
2026-04-26 22:55 32.70436 -116.82621 5829 ft 215 kts 250°
2026-04-26 22:55 32.69928 -116.84256 5597 ft 209 kts 252°
2026-04-26 22:55 32.69445 -116.85861 5373 ft 203 kts 252°
2026-04-26 22:56 32.68970 -116.87421 5096 ft 200 kts 251°
2026-04-26 22:56 32.68513 -116.88966 4883 ft 203 kts 252°
2026-04-26 22:56 32.68051 -116.90554 4641 ft 203 kts 252°
2026-04-26 22:56 32.67594 -116.92113 4386 ft 197 kts 252°
2026-04-26 22:57 32.67287 -116.93653 4132 ft 188 kts 274°
2026-04-26 22:57 32.67675 -116.95083 3971 ft 180 kts 291°
2026-04-26 22:57 32.67991 -116.96528 3746 ft 183 kts 281°
2026-04-26 22:57 32.68298 -116.97987 3549 ft 182 kts 286°
2026-04-26 22:58 32.68653 -116.99421 3336 ft 179 kts 285°
2026-04-26 22:58 32.68996 -117.00828 3108 ft 175 kts 285°
2026-04-26 22:58 32.69324 -117.02188 2905 ft 168 kts 285°
2026-04-26 22:58 32.69634 -117.03482 2742 ft 155 kts 283°
2026-04-26 22:59 32.69922 -117.04680 2636 ft 149 kts 283°
2026-04-26 22:59 32.70197 -117.05828 2424 ft 143 kts 284°
2026-04-26 22:59 32.70461 -117.06930 2198 ft 135 kts 284°
2026-04-26 22:59 32.70720 -117.08007 2014 ft 136 kts 284°
2026-04-26 23:00 32.70983 -117.09102 1784 ft 138 kts 283°
2026-04-26 23:00 32.71247 -117.10205 1561 ft 140 kts 283°
2026-04-26 23:00 32.71507 -117.11291 1353 ft 132 kts 286°
2026-04-26 23:00 32.71749 -117.12315 1081 ft 129 kts 289°
2026-04-26 23:01 32.71991 -117.13352 890 ft 132 kts 289°
2026-04-26 23:01 32.72247 -117.14415 692 ft 137 kts 291°
2026-04-26 23:01 32.72514 -117.15478 543 ft 135 kts 289°
2026-04-26 23:01 32.72777 -117.16530 352 ft 130 kts 287°
2026-04-26 23:02 32.73026 -117.17594 138 ft 138 kts 287°
2026-04-26 23:02 32.73289 -117.18675 18 ft 131 kts 287°
2026-04-26 23:02 32.73489 -117.19505 22 ft 74 kts 286°
2026-04-26 23:02 32.73584 -117.19906 25 ft 42 kts 286°
2026-04-26 23:03 32.73639 -117.20149 23 ft 14 kts 270°
2026-04-26 23:03 32.73591 -117.20212 22 ft 8 kts 201°
2026-04-26 23:03 32.73570 -117.20253 22 ft 0 kts 266°
2026-04-26 23:05 32.73570 -117.20273 22 ft 5 kts 276°
2026-04-26 23:05 32.73580 -117.20321 23 ft 6 kts 285°
2026-04-26 23:05 32.73592 -117.20371 24 ft 6 kts 285°
2026-04-26 23:06 32.73602 -117.20419 22 ft 6 kts 279°
2026-04-26 23:06 32.73605 -117.20473 22 ft 7 kts 270°
2026-04-26 23:06 32.73606 -117.20537 25 ft 9 kts 271°
2026-04-26 23:06 32.73601 -117.20612 23 ft 10 kts 247°
2026-04-26 23:07 32.73549 -117.20671 22 ft 11 kts 213°
2026-04-26 23:07 32.73500 -117.20688 22 ft 12 kts 184°
2026-04-26 23:07 32.73383 -117.20689 22 ft 12 kts 173°
2026-04-26 23:07 32.73338 -117.20658 22 ft 7 kts 139°
2026-04-26 23:08 32.73306 -117.20620 22 ft 6 kts 133°
2026-04-26 23:08 32.73286 -117.20608 24 ft 3 kts 168°
2026-04-26 23:08 32.73266 -117.20606 22 ft 1 kts 181°
2026-04-26 23:08 32.73261 -117.20607 22 ft 0 kts 181°